Regional Weather Roundup
Issued by NWS Burlington, VT

Home | Current Version | Previous Version | Text Only | Print | Product List | Glossary On
Versions: 1 2 3 4 5 6 7 8 9 10 11 12 13 14 15 16 17 18 19 20 21 22 23 24 25 26 27 28 29 30 31 32 33 34 35 36 37 38 39 40 41 42 43 44 45 46 47 48 49 50
000
ASUS41 KBTV 240610
RWRBTV
VERMONT REGIONAL WEATHER ROUNDUP
NATIONAL WEATHER SERVICE BURLINGTON VT
100 AM EST FRI FEB 24 2017

NOTE: "FAIR" INDICATES FEW OR NO CLOUDS BELOW 12,000 FEET WITH NO
SIGNIFICANT WEATHER AND/OR OBSTRUCTIONS TO VISIBILITY.

* THESE REPORTS ARE NOT UNDER NWS QUALITY CONTROL AND/OR DO NOT
  REPORT WEATHER SUCH AS PRECIPITATION AND FOG.

VTZ001>019-240700-
_____VERMONT_____


CITY           SKY/WX    TMP DP  RH WIND       PRES   REMARKS
BURLINGTON     MOCLDY    46  40  79 N5        29.86R
6HR MIN TEMP:  46; 6HR MAX TEMP:  58;

MONTPELIER     MOCLDY    42  41  96 CALM      29.87R
6HR MIN TEMP:  40; 6HR MAX TEMP:  60;

MORRISVILLE    MOCLDY    45  39  79 N8        29.85R
6HR MIN TEMP:  40; 6HR MAX TEMP:  52;

ST. JOHNSBURY*   N/A     33  32  96 MISG      29.83R
6HR MIN TEMP:  32; 6HR MAX TEMP:  42;

LYNDONVILLE*   CLOUDY    48  40  73 W8        29.85R
6HR MIN TEMP:  45; 6HR MAX TEMP:  55;

MIDDLEBURY*    FAIR      51  35  55 CALM      29.85R
6HR MIN TEMP:  49; 6HR MAX TEMP:  59;

RUTLAND*       PTCLDY    42  40  92 E3        29.87R
6HR MIN TEMP:  40; 6HR MAX TEMP:  62;

SPRINGFIELD    CLEAR     32  30  92 CALM      29.88R
6HR MIN TEMP:  32; 6HR MAX TEMP:  42;

HIGHGATE*      FAIR      45  38  76 W7        29.86R
6HR MIN TEMP:  45; 6HR MAX TEMP:  54;

NEWPORT*       CLOUDY    42  37  84 CALM      29.85R
6HR MIN TEMP:  42; 6HR MAX TEMP:  55;

BENNINGTON     MOCLDY    47  43  86 CALM      29.87S
6HR MIN TEMP:  47; 6HR MAX TEMP:  62;

SUTTON*          N/A     41 N/A N/A MISG        N/A

_____LAKE CHAMPLAIN_____


CITY           SKY/WX    TMP DP  RH WIND       PRES   REMARKS
BURTON ISLAND*   N/A     45  37  76 N3          N/A
COLCHESTER RF*   N/A     50  41  71 N15G21      N/A

$$

NYZ007-026>031-035-052-083-087-240700-
_____NORTHERN NEW YORK_____


CITY           SKY/WX    TMP DP  RH WIND       PRES   REMARKS
PLATTSBURGH    CLOUDY    48  38  68 NW6       29.87R
6HR MIN TEMP:  45; 6HR MAX TEMP:  58;

SARANAC LAKE   CLOUDY    42  40  92 VRB3      29.85R
6HR MIN TEMP:  42; 6HR MAX TEMP:  50;

MASSENA        CLOUDY    41  36  82 SW6       29.91R
6HR MIN TEMP:  41; 6HR MAX TEMP:  54;

OGDENSBURG*    MOCLDY    40  35  81 NW6       29.90S
6HR MIN TEMP:  37; 6HR MAX TEMP:  52;

POTSDAM*       CLOUDY    41  39  93 CALM      29.90S
WATERTOWN      MOCLDY    36  35  96 S3        29.89S
6HR MIN TEMP:  31; 6HR MAX TEMP:  45;

FT DRUM        CLOUDY    37  35  94 S3        29.88R
6HR MIN TEMP:  37; 6HR MAX TEMP:  50;

ALBANY         PTCLDY    45  42  89 CALM      29.88R
6HR MIN TEMP:  43; 6HR MAX TEMP:  63;

GLENS FALLS    PTCLDY    37  33  85 CALM      29.86R
6HR MIN TEMP:  37; 6HR MAX TEMP:  54;


$$
NHZ002-005-011-240700-
_____NEW HAMPSHIRE_____


CITY           SKY/WX    TMP DP  RH WIND       PRES   REMARKS
LEBANON        CLEAR     33  32  96 CALM      29.86R
6HR MIN TEMP:  33; 6HR MAX TEMP:  46;

KEENE          CLOUDY    36  34  93 CALM      29.90R FOG
6HR MIN TEMP:  35; 6HR MAX TEMP:  45; 6HR PCP: TRACE;

MT WASHINGTON  FOG       32  32 100 W61         N/A  VSB 0   WCI  13
6HR MIN TEMP:  32; 6HR MAX TEMP:  36;

PLYMOUTH       FAIR      31  30  96 CALM      29.86R
6HR MIN TEMP:  30; 6HR MAX TEMP:  40;

WHITEFIELD     PTCLDY    35  30  82 CALM      29.83R
6HR MIN TEMP:  34; 6HR MAX TEMP:  55;


$$

_____REGIONAL QUEBEC LOCATIONS_____


CITY           SKY/WX    TMP DP  RH WIND       PRES   REMARKS
MONTREAL       CLOUDY    39  34  81 W6        29.88R
QUEBEC CITY    MOCLDY    37  34  87 W14G20    29.78R WCI  29
SHERBROOKE     CLOUDY    46  41  81 SW7       29.82R

_____REGIONAL ONTARIO LOCATIONS_____


CITY           SKY/WX    TMP DP  RH WIND       PRES   REMARKS
OTTAWA         PTCLDY    36  32  87 W6        29.89S WCI  31

______KEY______
VSB  - VISIBILITY IN MILES
WCI  - WIND CHILL INDEX
HX   - HEAT INDEX
$$
NNNN




USA.gov is the U.S. government's official web portal to all federal, state and local government web resources and services.